When you browse on this site, cookies collect data to enhance your experience and personalize the content and advertising you see.
Visit our Privacy Policy to learn more. By continuing to use the site, you agree to this use of cookies and data.
  • In Hungary
  • List of Countries
  • For 7 days
  • Water Temperature
  • Weather Map
  • News
  • Weather Widgets
  • user-avatar
    Login

    Hourly Weather Edina

    Today, 19 November, Tuesday

    Time Temperature Precipitation Wind Pressure Humidity
    00:00 +2°C° 0 mm 1 mps 729 mmHg 84%
    01:00 +2°C° 0.4 mm 1 mps 729 mmHg 87%
    02:00 +2°C° 0.4 mm 1 mps 729 mmHg 90%
    03:00 +1°C° 0.4 mm 2 mps 729 mmHg 94%
    04:00 +2°C° 0 mm 2 mps 729 mmHg 94%
    05:00 +2°C° 0 mm 2 mps 729 mmHg 93%
    06:00 +3°C° 0 mm 1 mps 730 mmHg 92%
    07:00 +3°C° 0 mm 1 mps 730 mmHg 91%
    08:00 +2°C° 0 mm 2 mps 730 mmHg 90%
    09:00 +2°C° 0 mm 2 mps 731 mmHg 89%
    10:00 +3°C° 0 mm 2 mps 731 mmHg 87%
    11:00 +3°C° 0 mm 2 mps 732 mmHg 86%
    12:00 +3°C° 0 mm 2 mps 732 mmHg 85%
    13:00 +4°C° 0 mm 2 mps 732 mmHg 85%
    14:00 +4°C° 0 mm 2 mps 733 mmHg 85%
    15:00 +4°C° 0 mm 2 mps 733 mmHg 85%
    16:00 +4°C° 0 mm 1 mps 733 mmHg 87%
    17:00 +3°C° 0 mm 1 mps 733 mmHg 90%
    18:00 +2°C° 0 mm 0 mps 734 mmHg 93%
    19:00 +1°C° 0 mm 0 mps 734 mmHg 93%
    20:00 +1°C° 0 mm 0 mps 735 mmHg 93%
    21:00 +1°C° 0 mm 0 mps 735 mmHg 93%
    22:00 +1°C° 0 mm 0 mps 735 mmHg 94%
    23:00 +1°C° 0 mm 0 mps 736 mmHg 94%

    Tomorrow, 20 November, Wednesday

    Time Temperature Precipitation Wind Pressure Humidity
    00:00 +1°C° 0 mm 0 mps 736 mmHg 94%
    01:00 +2°C° 0 mm 1 mps 736 mmHg 94%
    02:00 +1°C° 0 mm 1 mps 737 mmHg 94%
    03:00 +1°C° 0 mm 1 mps 737 mmHg 94%
    04:00 +1°C° 0 mm 1 mps 737 mmHg 95%
    05:00 -1°C° 0 mm 2 mps 737 mmHg 95%
    06:00 -1°C° 0 mm 2 mps 737 mmHg 95%
    07:00 0°C° 0 mm 3 mps 737 mmHg 93%
    08:00 0°C° 0 mm 3 mps 737 mmHg 91%
    09:00 +1°C° 0 mm 3 mps 737 mmHg 88%
    10:00 +1°C° 0 mm 4 mps 737 mmHg 85%
    11:00 +3°C° 0 mm 4 mps 736 mmHg 81%
    12:00 +4°C° 0 mm 4 mps 736 mmHg 78%
    13:00 +5°C° 0 mm 4 mps 735 mmHg 77%
    14:00 +5°C° 0 mm 4 mps 735 mmHg 77%
    15:00 +6°C° 0 mm 5 mps 734 mmHg 77%
    16:00 +5°C° 0 mm 4 mps 734 mmHg 81%
    17:00 +4°C° 0 mm 4 mps 734 mmHg 85%
    18:00 +3°C° 0 mm 3 mps 733 mmHg 89%
    19:00 +3°C° 0 mm 3 mps 733 mmHg 89%
    20:00 +4°C° 0 mm 4 mps 733 mmHg 90%
    21:00 +4°C° 0 mm 4 mps 732 mmHg 90%
    22:00 +4°C° 0.3 mm 3 mps 732 mmHg 92%
    23:00 +4°C° 0.3 mm 3 mps 731 mmHg 94%

    Day after tomorrow, 21 November, Thursday

    Time Temperature Precipitation Wind Pressure Humidity
    00:00 +4°C° 0.3 mm 3 mps 730 mmHg 96%
    01:00 +5°C° 1.9 mm 2 mps 729 mmHg 97%
    02:00 +4°C° 1.9 mm 2 mps 729 mmHg 98%
    03:00 +4°C° 1.9 mm 2 mps 728 mmHg 99%
    04:00 +3°C° 2.1 mm 3 mps 728 mmHg 98%
    05:00 +3°C° 2.1 mm 4 mps 728 mmHg 97%
    06:00 +2°C° 2.1 mm 5 mps 728 mmHg 96%
    07:00 +1°C° 0.6 mm 6 mps 728 mmHg 95%
    08:00 -1°C° 0.6 mm 7 mps 729 mmHg 94%
    09:00 -1°C° 0.6 mm 8 mps 730 mmHg 93%
    10:00 -2°C° 0.1 mm 8 mps 731 mmHg 89%
    11:00 -2°C° 0.1 mm 8 mps 732 mmHg 85%
    12:00 -3°C° 0.1 mm 7 mps 733 mmHg 81%
    13:00 -3°C° 0.1 mm 7 mps 733 mmHg 80%
    14:00 -3°C° 0.1 mm 7 mps 734 mmHg 79%
    15:00 -4°C° 0.1 mm 6 mps 734 mmHg 78%
    16:00 -5°C° 0 mm 6 mps 735 mmHg 75%
    17:00 -5°C° 0 mm 6 mps 736 mmHg 73%
    18:00 -6°C° 0 mm 6 mps 737 mmHg 70%
    19:00 -6°C° 0 mm 5 mps 738 mmHg 70%
    20:00 -7°C° 0 mm 5 mps 738 mmHg 69%
    21:00 -7°C° 0 mm 4 mps 739 mmHg 69%
    22:00 -7°C° 0 mm 4 mps 739 mmHg 68%
    23:00 -8°C° 0 mm 4 mps 739 mmHg 68%

    22 November, Friday

    Time Temperature Precipitation Wind Pressure Humidity
    00:00 -8°C° 0 mm 4 mps 739 mmHg 68%
    01:00 -7°C° 0 mm 3 mps 740 mmHg 68%
    02:00 -7°C° 0 mm 3 mps 740 mmHg 68%
    03:00 -7°C° 0 mm 3 mps 740 mmHg 69%
    04:00 -7°C° 0 mm 3 mps 740 mmHg 69%
    05:00 -6°C° 0 mm 2 mps 740 mmHg 70%
    06:00 -6°C° 0 mm 2 mps 741 mmHg 70%
    07:00 -6°C° 0 mm 2 mps 741 mmHg 68%
    08:00 -5°C° 0 mm 2 mps 741 mmHg 65%
    09:00 -3°C° 0 mm 1 mps 741 mmHg 63%
    10:00 -1°C° 0 mm 1 mps 741 mmHg 57%
    11:00 0°C° 0 mm 1 mps 740 mmHg 51%
    12:00 +1°C° 0 mm 1 mps 740 mmHg 45%
    13:00 +2°C° 0 mm 1 mps 739 mmHg 46%
    14:00 +2°C° 0 mm 1 mps 739 mmHg 47%
    15:00 +2°C° 0 mm 1 mps 738 mmHg 48%
    16:00 -1°C° 0 mm 2 mps 738 mmHg 52%
    17:00 -2°C° 0 mm 2 mps 738 mmHg 56%
    18:00 -2°C° 0 mm 2 mps 738 mmHg 61%
    19:00 -3°C° 0 mm 2 mps 737 mmHg 61%
    20:00 -4°C° 0 mm 3 mps 737 mmHg 61%
    21:00 -4°C° 0 mm 3 mps 737 mmHg 61%
    22:00 -4°C° 0 mm 3 mps 736 mmHg 60%
    23:00 -4°C° 0 mm 3 mps 736 mmHg 59%

    23 November, Saturday

    Time Temperature Precipitation Wind Pressure Humidity
    00:00 -4°C° 0 mm 3 mps 735 mmHg 58%
    01:00 -4°C° 0 mm 4 mps 735 mmHg 58%
    02:00 -4°C° 0 mm 4 mps 734 mmHg 58%
    03:00 -4°C° 0 mm 4 mps 733 mmHg 57%
    04:00 -4°C° 0 mm 4 mps 733 mmHg 58%
    05:00 -4°C° 0 mm 4 mps 732 mmHg 59%
    06:00 -4°C° 0 mm 4 mps 732 mmHg 60%
    07:00 -3°C° 0 mm 4 mps 732 mmHg 62%
    08:00 -3°C° 0 mm 4 mps 732 mmHg 65%
    09:00 -2°C° 0 mm 4 mps 732 mmHg 68%
    10:00 -2°C° 0 mm 4 mps 732 mmHg 67%
    11:00 -1°C° 0 mm 4 mps 732 mmHg 67%
    12:00 0°C° 0 mm 4 mps 732 mmHg 67%
    13:00 0°C° 0 mm 4 mps 732 mmHg 68%
    14:00 0°C° 0 mm 4 mps 732 mmHg 69%
    15:00 +1°C° 0 mm 4 mps 732 mmHg 70%
    16:00 +1°C° 0 mm 3 mps 732 mmHg 76%
    17:00 0°C° 0 mm 3 mps 732 mmHg 81%
    18:00 -1°C° 0 mm 3 mps 732 mmHg 87%
    19:00 -1°C° 0 mm 3 mps 733 mmHg 87%
    20:00 -2°C° 0 mm 3 mps 733 mmHg 88%
    21:00 -2°C° 0 mm 2 mps 733 mmHg 89%
    22:00 -2°C° 0 mm 2 mps 733 mmHg 89%
    23:00 -2°C° 0 mm 2 mps 733 mmHg 89%

    24 November, Sunday

    Time Temperature Precipitation Wind Pressure Humidity
    00:00 -2°C° 0 mm 2 mps 733 mmHg 89%
    01:00 -2°C° 0 mm 2 mps 733 mmHg 89%
    02:00 -2°C° 0 mm 2 mps 733 mmHg 89%
    03:00 -2°C° 0 mm 2 mps 733 mmHg 89%
    04:00 -2°C° 0 mm 2 mps 733 mmHg 89%
    05:00 -2°C° 0 mm 2 mps 733 mmHg 88%
    06:00 -2°C° 0 mm 2 mps 733 mmHg 88%
    07:00 -1°C° 0 mm 2 mps 733 mmHg 84%
    08:00 -1°C° 0 mm 2 mps 733 mmHg 80%
    09:00 +1°C° 0 mm 2 mps 733 mmHg 76%
    10:00 +2°C° 0 mm 2 mps 733 mmHg 71%
    11:00 +3°C° 0 mm 2 mps 733 mmHg 66%
    12:00 +4°C° 0 mm 2 mps 733 mmHg 61%
    13:00 +5°C° 0 mm 2 mps 732 mmHg 62%
    14:00 +4°C° 0 mm 3 mps 732 mmHg 62%
    15:00 +4°C° 0 mm 3 mps 731 mmHg 62%
    16:00 +3°C° 0 mm 3 mps 731 mmHg 67%
    17:00 +2°C° 0 mm 3 mps 731 mmHg 71%
    18:00 0°C° 0 mm 4 mps 731 mmHg 76%
    19:00 0°C° 0 mm 4 mps 731 mmHg 77%
    20:00 0°C° 0 mm 4 mps 731 mmHg 79%
    21:00 +1°C° 0 mm 3 mps 731 mmHg 80%
    22:00 +1°C° 0 mm 3 mps 730 mmHg 81%
    23:00 0°C° 0 mm 3 mps 730 mmHg 82%
    Show more